Location: Ku?niki
(51.4449°N, 17.8974°E)
Time: 06:38:41
(UTC+00:00)

Resurs 01 Rocket - Pass Details

Date: 18 September 2020
Orbit: 633 x 645 km, 98.0° (Epoch: 18 October)

Event Time Altitude Azimuth Distance (km) Brightness Sun altitude
Exits shadow 19:19:16 50° 176° (S) 827 1.9 -22.0°
Maximum altitude 19:20:25 81° 255° (WSW) 659 1.6 -22.1°
Drops below altitude 10° 19:24:55 10° 344° (NNW) 2,054 4.9 -22.7°
Sets 19:27:08 0° 346° (NNW) 2,967 5.8 -23.0°
